Weather History for Great Bend, KS

Change the Weather History Date:

Sunday, December 2, 2012

  Actual Average Record
Temperature  
Mean Temperature 50 °F -  
Max Temperature 68 °F 48 °F 70 °F (1988)
Min Temperature 33 °F 26 °F -1 °F (1985)
Degree Days  
Heating Degree Days 14    
Moisture  
Dew Point 36 °F    
Average Humidity 64    
Maximum Humidity 87    
Minimum Humidity 32    
Precipitation  
Precipitation 0.00 in - - ()
Sea Level Pressure  
Sea Level Pressure 29.91 in    
Wind  
Wind Speed 8 mph (South)    
Max Wind Speed 22 mph    
Max Gust Speed 26 mph    
Visibility 10 miles    
Events      
Averages and records for this station are not official NWS values.
T = Trace of Precipitation, MM = Missing Value Source: NWS Daily Summary

Daily Weather History Graph

Daily Weather History Graph

Search for Another Location

Airport:

Trip Planner

Search our weather history database for the weather conditions in past years. The results will help you decide how hot, cold, wet, or windy it might be!

Date:

Astronomy

Dec. 02, 2012 Rise Set
Actual Time 7:35 AM CST 5:15 PM CST
Civil Twilight 7:05 AM CST 5:44 PM CST
Nautical Twilight 6:32 AM CST 6:17 PM CST
Astronomical Twilight 6:00 AM CST 6:49 PM CST
Moon 9:02 PM CST (12/2) 10:26 AM CST (12/2)
Length of Visible Light 10h 38m
Length of Day
9h 40m
Waning Gibbous, 85% of the Moon is Illuminated
Dec 2
Waning Gibbous
Dec 6
Last Quarter
Dec 13
New
Dec 19
First Quarter
Dec 28
Full

Hourly Weather History & Observations

Time (CST) Temp. Windchill Dew Point Humidity Pressure Visibility Wind Dir Wind Speed Gust Speed Precip Events Conditions
12:15 AM 42.8 °F 37.5 °F 37.4 °F 81% 29.96 in 10.0 mi WNW 9.2 mph - N/A   Clear
12:35 AM 41.0 °F 35.8 °F 37.4 °F 87% 29.96 in 10.0 mi WNW 8.1 mph - N/A   Clear
12:55 AM 41.0 °F 38.0 °F 35.6 °F 81% 29.96 in 10.0 mi West 4.6 mph - N/A   Clear
1:15 AM 42.8 °F 38.6 °F 37.4 °F 81% 29.96 in 10.0 mi WNW 6.9 mph - N/A   Clear
1:35 AM 41.0 °F 39.0 °F 35.6 °F 81% 29.96 in 10.0 mi SSW 3.5 mph - N/A   Clear
1:55 AM 42.8 °F 39.3 °F 37.4 °F 81% 29.96 in 10.0 mi SW 5.8 mph - N/A   Clear
2:15 AM 44.6 °F 39.7 °F 37.4 °F 76% 29.96 in 10.0 mi West 9.2 mph - N/A   Clear
2:35 AM 44.6 °F 40.7 °F 35.6 °F 71% 29.97 in 10.0 mi West 6.9 mph - N/A   Clear
2:55 AM 42.8 °F 37.5 °F 35.6 °F 76% 29.97 in 10.0 mi West 9.2 mph - N/A   Clear
3:15 AM 42.8 °F 37.0 °F 35.6 °F 76% 29.97 in 10.0 mi West 10.4 mph - N/A   Clear
3:35 AM 41.0 °F 35.8 °F 33.8 °F 76% 29.98 in 10.0 mi WSW 8.1 mph - N/A   Clear
3:55 AM 37.4 °F 31.4 °F 33.8 °F 87% 29.98 in 10.0 mi WSW 8.1 mph - N/A   Clear
4:15 AM 37.4 °F 30.8 °F 33.8 °F 87% 29.98 in 10.0 mi West 9.2 mph - N/A   Clear
4:35 AM 39.2 °F 32.5 °F 33.8 °F 81% 29.98 in 10.0 mi West 10.4 mph - N/A   Clear
4:55 AM 41.0 °F 34.3 °F 33.8 °F 76% 29.97 in 10.0 mi WNW 11.5 mph - N/A   Clear
5:15 AM 42.8 °F 36.2 °F 35.6 °F 76% 29.97 in 10.0 mi NW 12.7 mph - N/A   Clear
5:35 AM 39.2 °F - 33.8 °F 81% 29.98 in 10.0 mi Calm Calm - N/A   Clear
5:55 AM 39.2 °F 33.6 °F 32.0 °F 75% 29.99 in 10.0 mi WSW 8.1 mph - N/A   Clear
6:15 AM 39.2 °F 34.2 °F 33.8 °F 81% 29.99 in 10.0 mi WSW 6.9 mph - N/A   Clear
6:35 AM 37.4 °F 32.8 °F 30.2 °F 75% 30.00 in 10.0 mi WSW 5.8 mph - N/A   Clear
6:55 AM 35.6 °F 29.9 °F 30.2 °F 81% 30.00 in 10.0 mi SW 6.9 mph - N/A   Clear
7:15 AM 35.6 °F 32.8 °F 28.4 °F 75% 30.01 in 10.0 mi SW 3.5 mph - N/A   Clear
7:35 AM 33.8 °F 28.6 °F 28.4 °F 81% 30.02 in 10.0 mi SSW 5.8 mph - N/A   Clear
7:55 AM 33.8 °F - 28.4 °F 81% 30.02 in 10.0 mi Calm Calm - N/A   Clear
8:15 AM 33.8 °F 29.6 °F 28.4 °F 81% 30.02 in 10.0 mi SW 4.6 mph - N/A   Clear
8:35 AM 35.6 °F - 30.2 °F 81% 30.03 in 10.0 mi Calm Calm - N/A   Clear
8:55 AM 37.4 °F 34.9 °F 32.0 °F 81% 30.03 in 10.0 mi SSW 3.5 mph - N/A   Clear
9:15 AM 39.2 °F 35.0 °F 33.8 °F 81% 30.04 in 10.0 mi SSW 5.8 mph - N/A   Clear
9:35 AM 42.8 °F - 37.4 °F 81% 30.04 in 10.0 mi Calm Calm - N/A   Clear
9:55 AM 46.4 °F - 37.4 °F 71% 30.03 in 10.0 mi Calm Calm - N/A   Clear
10:15 AM 48.2 °F - 39.2 °F 71% 30.03 in 10.0 mi Calm Calm - N/A   Clear
10:35 AM 51.8 °F - 39.2 °F 62% 30.03 in 10.0 mi North 5.8 mph - N/A   Clear
10:55 AM 53.6 °F - 39.2 °F 58% 30.02 in 10.0 mi NE 4.6 mph - N/A   Clear
11:15 AM 53.6 °F - 39.2 °F 58% 30.02 in 10.0 mi ENE 3.5 mph - N/A   Clear
11:35 AM 55.4 °F - 39.2 °F 54% 30.01 in 10.0 mi ENE 3.5 mph - N/A   Clear
11:55 AM 59.0 °F - 39.2 °F 48% 30.00 in 10.0 mi SE 4.6 mph - N/A   Clear
12:15 PM 60.8 °F - 39.2 °F 45% 29.99 in 10.0 mi SSE 6.9 mph - N/A   Clear
12:35 PM 62.6 °F - 39.2 °F 42% 29.97 in 10.0 mi South 8.1 mph - N/A   Clear
12:55 PM 64.4 °F - 37.4 °F 37% 29.96 in 10.0 mi SSE 12.7 mph - N/A   Clear
1:15 PM 66.2 °F - 37.4 °F 35% 29.94 in 10.0 mi South 10.4 mph - N/A   Clear
1:35 PM 64.4 °F - 39.2 °F 40% 29.93 in 10.0 mi South 11.5 mph - N/A   Clear
1:55 PM 66.2 °F - 39.2 °F 37% 29.92 in 10.0 mi SSE 8.1 mph - N/A   Clear
2:15 PM 66.2 °F - 37.4 °F 35% 29.91 in 10.0 mi SSE 12.7 mph - N/A   Clear
2:35 PM 68.0 °F - 37.4 °F 33% 29.90 in 10.0 mi SSE 12.7 mph - N/A   Clear
2:55 PM 66.2 °F - 35.6 °F 32% 29.89 in 10.0 mi SE 11.5 mph - N/A   Clear
3:15 PM 66.2 °F - 35.6 °F 32% 29.88 in 10.0 mi SE 11.5 mph - N/A   Clear
3:35 PM 64.4 °F - 35.6 °F 34% 29.87 in 10.0 mi SSE 10.4 mph - N/A   Clear
3:55 PM 64.4 °F - 37.4 °F 37% 29.86 in 10.0 mi SE 9.2 mph - N/A   Clear
4:15 PM 62.6 °F - 37.4 °F 39% 29.85 in 10.0 mi SE 9.2 mph - N/A   Clear
4:35 PM 60.8 °F - 37.4 °F 42% 29.85 in 10.0 mi SE 8.1 mph - N/A   Clear
4:55 PM 57.2 °F - 37.4 °F 48% 29.85 in 10.0 mi SE 9.2 mph - N/A   Clear
5:15 PM 55.4 °F - 37.4 °F 51% 29.84 in 10.0 mi SSE 11.5 mph - N/A   Clear
5:35 PM 57.2 °F - 35.6 °F 44% 29.84 in 10.0 mi SSE 13.8 mph - N/A   Clear
5:55 PM 57.2 °F - 35.6 °F 44% 29.83 in 10.0 mi SSE 13.8 mph - N/A   Clear
6:15 PM 55.4 °F - 37.4 °F 51% 29.83 in 10.0 mi SSE 17.3 mph - N/A   Clear
6:35 PM 55.4 °F - 37.4 °F 51% 29.82 in 10.0 mi South 17.3 mph - N/A   Clear
6:55 PM 53.6 °F - 39.2 °F 58% 29.82 in 10.0 mi South 12.7 mph - N/A   Clear
7:15 PM 53.6 °F - 39.2 °F 58% 29.81 in 10.0 mi South 17.3 mph - N/A   Clear
7:55 PM 51.8 °F - 39.2 °F 62% 29.81 in 10.0 mi SSE 11.5 mph - N/A   Clear
8:15 PM 50.0 °F - 39.2 °F 66% 29.80 in 10.0 mi South 11.5 mph - N/A   Clear
8:35 PM 48.2 °F - 39.2 °F 71% 29.79 in 10.0 mi SSE 12.7 mph - N/A   Clear
8:55 PM 48.2 °F - 39.2 °F 71% 29.78 in 10.0 mi SSE 12.7 mph - N/A   Clear
9:15 PM 48.2 °F - 41.0 °F 76% 29.76 in 10.0 mi SSE 15.0 mph - N/A   Clear
9:35 PM 50.0 °F - 39.2 °F 66% 29.75 in 10.0 mi SSE 16.1 mph - N/A   Clear
9:55 PM 51.8 °F - 39.2 °F 62% 29.75 in 10.0 mi SSE 15.0 mph 21.9 mph N/A   Clear
10:15 PM 51.8 °F - 39.2 °F 62% 29.74 in 10.0 mi SSE 12.7 mph - N/A   Clear
10:35 PM 48.2 °F - 39.2 °F 71% 29.74 in 10.0 mi SSE 6.9 mph - N/A   Clear
10:55 PM 46.4 °F 42.4 °F 37.4 °F 71% 29.73 in 10.0 mi SSE 8.1 mph - N/A   Clear
11:15 PM 46.4 °F 41.9 °F 37.4 °F 71% 29.72 in 10.0 mi SSE 9.2 mph - N/A   Clear
11:35 PM 48.2 °F - 39.2 °F 71% 29.70 in 10.0 mi South 9.2 mph - N/A   Clear
11:55 PM 51.8 °F - 41.0 °F 67% 29.69 in 10.0 mi South 21.9 mph 26.5 mph N/A   Clear